owner,sensor,date,latitude,longitude,air_temperature,qcFlag 
COMPS,ioos:station:USF.COMPS:EGK:1,2010-11-01T00:00:00Z,27.6010,-82.7510,25.1,1111122 
COMPS,ioos:station:USF.COMPS:EGK:1,2010-11-01T00:06:00Z,27.6010,-82.7510,24.97,1111122 
COMPS,ioos:station:USF.COMPS:EGK:1,2010-11-01T00:12:00Z,27.6010,-82.7510,25.08,1111122 
COMPS,ioos:station:USF.COMPS:EGK:1,2010-11-01T00:18:00Z,27.6010,-82.7510,24.99,1111122 
COMPS,ioos:station:USF.COMPS:EGK:1,2010-11-01T00:24:00Z,27.6010,-82.7510,24.97,1111122 
COMPS,ioos:station:USF.COMPS:EGK:1,2010-11-01T00:30:00Z,27.6010,-82.7510,24.96,1111122 
COMPS,ioos:station:USF.COMPS:EGK:1,2010-11-01T00:36:00Z,27.6010,-82.7510,24.96,1111122 
COMPS,ioos:station:USF.COMPS:EGK:1,2010-11-01T00:42:00Z,27.6010,-82.7510,24.96,1111122 
COMPS,ioos:station:USF.COMPS:EGK:1,2010-11-01T00:48:00Z,27.6010,-82.7510,24.99,1111122 
COMPS,ioos:station:USF.COMPS:EGK:1,2010-11-01T00:54:00Z,27.6010,-82.7510,25.03,1111122 
COMPS,ioos:station:USF.COMPS:EGK:1,2010-11-01T01:00:00Z,27.6010,-82.7510,25.0,1111122 
COMPS,ioos:station:USF.COMPS:EGK:1,2010-11-01T01:06:00Z,27.6010,-82.7510,24.96,1111122 
COMPS,ioos:station:USF.COMPS:EGK:1,2010-11-01T01:12:00Z,27.6010,-82.7510,24.94,1111122 
COMPS,ioos:station:USF.COMPS:EGK:1,2010-11-01T01:18:00Z,27.6010,-82.7510,25.08,1111122 
COMPS,ioos:station:USF.COMPS:EGK:1,2010-11-01T01:24:00Z,27.6010,-82.7510,25.21,1111122 
COMPS,ioos:station:USF.COMPS:EGK:1,2010-11-01T01:30:00Z,27.6010,-82.7510,25.3,1111122 
COMPS,ioos:station:USF.COMPS:EGK:1,2010-11-01T01:36:00Z,27.6010,-82.7510,25.27,1111122 
COMPS,ioos:station:USF.COMPS:EGK:1,2010-11-01T01:42:00Z,27.6010,-82.7510,25.33,1111122 
COMPS,ioos:station:USF.COMPS:EGK:1,2010-11-01T01:48:00Z,27.6010,-82.7510,25.27,1111122 
COMPS,ioos:station:USF.COMPS:EGK:1,2010-11-01T01:54:00Z,27.6010,-82.7510,25.2,1111122 
COMPS,ioos:station:USF.COMPS:EGK:1,2010-11-01T02:00:00Z,27.6010,-82.7510,25.2,1111122 
COMPS,ioos:station:USF.COMPS:EGK:1,2010-11-01T02:06:00Z,27.6010,-82.7510,24.89,1111122 
COMPS,ioos:station:USF.COMPS:EGK:1,2010-11-01T02:12:00Z,27.6010,-82.7510,24.89,1111122 
COMPS,ioos:station:USF.COMPS:EGK:1,2010-11-01T02:18:00Z,27.6010,-82.7510,24.89,1111122 
COMPS,ioos:station:USF.COMPS:EGK:1,2010-11-01T02:24:00Z,27.6010,-82.7510,24.92,1111122 
COMPS,ioos:station:USF.COMPS:EGK:1,2010-11-01T02:30:00Z,27.6010,-82.7510,24.83,1111122 
COMPS,ioos:station:USF.COMPS:EGK:1,2010-11-01T02:36:00Z,27.6010,-82.7510,24.95,1111122 
COMPS,ioos:station:USF.COMPS:EGK:1,2010-11-01T02:42:00Z,27.6010,-82.7510,25.1,1111122 
COMPS,ioos:station:USF.COMPS:EGK:1,2010-11-01T02:48:00Z,27.6010,-82.7510,25.13,1111122 
COMPS,ioos:station:USF.COMPS:EGK:1,2010-11-01T02:54:00Z,27.6010,-82.7510,25.13,1111122 
COMPS,ioos:station:USF.COMPS:EGK:1,2010-11-01T03:00:00Z,27.6010,-82.7510,25.1,1111122 
COMPS,ioos:station:USF.COMPS:EGK:1,2010-11-01T03:06:00Z,27.6010,-82.7510,25.0,1111122 
COMPS,ioos:station:USF.COMPS:EGK:1,2010-11-01T03:12:00Z,27.6010,-82.7510,24.94,1111122 
COMPS,ioos:station:USF.COMPS:EGK:1,2010-11-01T03:18:00Z,27.6010,-82.7510,24.85,1111122 
COMPS,ioos:station:USF.COMPS:EGK:1,2010-11-01T03:24:00Z,27.6010,-82.7510,25.02,1111122 
COMPS,ioos:station:USF.COMPS:EGK:1,2010-11-01T03:30:00Z,27.6010,-82.7510,24.97,1111122 
COMPS,ioos:station:USF.COMPS:EGK:1,2010-11-01T03:36:00Z,27.6010,-82.7510,24.97,1111122 
COMPS,ioos:station:USF.COMPS:EGK:1,2010-11-01T03:42:00Z,27.6010,-82.7510,24.96,1111122 
COMPS,ioos:station:USF.COMPS:EGK:1,2010-11-01T03:48:00Z,27.6010,-82.7510,24.96,1111122 
COMPS,ioos:station:USF.COMPS:EGK:1,2010-11-01T03:54:00Z,27.6010,-82.7510,24.92,1111122 
COMPS,ioos:station:USF.COMPS:EGK:1,2010-11-01T04:00:00Z,27.6010,-82.7510,24.9,1111122 
COMPS,ioos:station:USF.COMPS:EGK:1,2010-11-01T04:06:00Z,27.6010,-82.7510,24.54,1111122 
COMPS,ioos:station:USF.COMPS:EGK:1,2010-11-01T04:12:00Z,27.6010,-82.7510,24.56,1111122 
COMPS,ioos:station:USF.COMPS:EGK:1,2010-11-01T04:18:00Z,27.6010,-82.7510,24.56,1111122 
COMPS,ioos:station:USF.COMPS:EGK:1,2010-11-01T04:24:00Z,27.6010,-82.7510,24.58,1111122 
COMPS,ioos:station:USF.COMPS:EGK:1,2010-11-01T04:30:00Z,27.6010,-82.7510,24.55,1111122 
COMPS,ioos:station:USF.COMPS:EGK:1,2010-11-01T04:36:00Z,27.6010,-82.7510,24.5,1111122 
COMPS,ioos:station:USF.COMPS:EGK:1,2010-11-01T04:42:00Z,27.6010,-82.7510,24.51,1111122 
COMPS,ioos:station:USF.COMPS:EGK:1,2010-11-01T04:48:00Z,27.6010,-82.7510,24.42,1111122 
COMPS,ioos:station:USF.COMPS:EGK:1,2010-11-01T04:54:00Z,27.6010,-82.7510,24.42,1111122 
COMPS,ioos:station:USF.COMPS:EGK:1,2010-11-01T05:00:00Z,27.6010,-82.7510,24.4,1111122 
COMPS,ioos:station:USF.COMPS:EGK:1,2010-11-01T11:00:00Z,27.6010,-82.7510,23.1,1111122 
COMPS,ioos:station:USF.COMPS:EGK:1,2010-11-01T11:06:00Z,27.6010,-82.7510,23.03,1111122 
COMPS,ioos:station:USF.COMPS:EGK:1,2010-11-01T11:12:00Z,27.6010,-82.7510,22.95,1111122 
COMPS,ioos:station:USF.COMPS:EGK:1,2010-11-01T11:18:00Z,27.6010,-82.7510,23.01,1111122 
COMPS,ioos:station:USF.COMPS:EGK:1,2010-11-01T11:24:00Z,27.6010,-82.7510,22.96,1111122 
COMPS,ioos:station:USF.COMPS:EGK:1,2010-11-01T11:30:00Z,27.6010,-82.7510,23.07,1111122 
COMPS,ioos:station:USF.COMPS:EGK:1,2010-11-01T11:36:00Z,27.6010,-82.7510,23.02,1111122 
COMPS,ioos:station:USF.COMPS:EGK:1,2010-11-01T11:42:00Z,27.6010,-82.7510,23.13,1111122 
COMPS,ioos:station:USF.COMPS:EGK:1,2010-11-01T11:48:00Z,27.6010,-82.7510,23.2,1111122 
COMPS,ioos:station:USF.COMPS:EGK:1,2010-11-01T11:54:00Z,27.6010,-82.7510,23.22,1111122 
COMPS,ioos:station:USF.COMPS:EGK:1,2010-11-01T12:00:00Z,27.6010,-82.7510,23.2,1111122 
COMPS,ioos:station:USF.COMPS:EGK:1,2010-11-01T12:06:00Z,27.6010,-82.7510,23.44,1111122 
COMPS,ioos:station:USF.COMPS:EGK:1,2010-11-01T12:12:00Z,27.6010,-82.7510,23.48,1111122 
COMPS,ioos:station:USF.COMPS:EGK:1,2010-11-01T12:18:00Z,27.6010,-82.7510,23.47,1111122 
COMPS,ioos:station:USF.COMPS:EGK:1,2010-11-01T12:24:00Z,27.6010,-82.7510,23.5,1111122 
COMPS,ioos:station:USF.COMPS:EGK:1,2010-11-01T12:30:00Z,27.6010,-82.7510,23.55,1111122 
COMPS,ioos:station:USF.COMPS:EGK:1,2010-11-01T12:36:00Z,27.6010,-82.7510,23.48,1111122 
COMPS,ioos:station:USF.COMPS:EGK:1,2010-11-01T12:42:00Z,27.6010,-82.7510,23.47,1111122 
COMPS,ioos:station:USF.COMPS:EGK:1,2010-11-01T12:48:00Z,27.6010,-82.7510,23.43,1111122 
COMPS,ioos:station:USF.COMPS:EGK:1,2010-11-01T12:54:00Z,27.6010,-82.7510,23.44,1111122 
COMPS,ioos:station:USF.COMPS:EGK:1,2010-11-01T13:00:00Z,27.6010,-82.7510,23.4,1111122 
COMPS,ioos:station:USF.COMPS:EGK:1,2010-11-01T13:06:00Z,27.6010,-82.7510,23.41,1111122 
COMPS,ioos:station:USF.COMPS:EGK:1,2010-11-01T13:12:00Z,27.6010,-82.7510,23.49,1111122 
COMPS,ioos:station:USF.COMPS:EGK:1,2010-11-01T13:18:00Z,27.6010,-82.7510,23.68,1111122 
COMPS,ioos:station:USF.COMPS:EGK:1,2010-11-01T13:24:00Z,27.6010,-82.7510,23.73,1111122 
COMPS,ioos:station:USF.COMPS:EGK:1,2010-11-01T13:30:00Z,27.6010,-82.7510,23.83,1111122 
COMPS,ioos:station:USF.COMPS:EGK:1,2010-11-01T13:36:00Z,27.6010,-82.7510,23.91,1111122 
COMPS,ioos:station:USF.COMPS:EGK:1,2010-11-01T13:42:00Z,27.6010,-82.7510,23.97,1111122 
COMPS,ioos:station:USF.COMPS:EGK:1,2010-11-01T13:48:00Z,27.6010,-82.7510,24.02,1111122 
COMPS,ioos:station:USF.COMPS:EGK:1,2010-11-01T13:54:00Z,27.6010,-82.7510,24.12,1111122 
COMPS,ioos:station:USF.COMPS:EGK:1,2010-11-01T14:00:00Z,27.6010,-82.7510,24.19,1111122 
COMPS,ioos:station:USF.COMPS:EGK:1,2010-11-01T14:06:00Z,27.6010,-82.7510,24.3,1111122 
COMPS,ioos:station:USF.COMPS:EGK:1,2010-11-01T14:12:00Z,27.6010,-82.7510,24.36,1111122 
COMPS,ioos:station:USF.COMPS:EGK:1,2010-11-01T14:18:00Z,27.6010,-82.7510,24.43,1111122 
COMPS,ioos:station:USF.COMPS:EGK:1,2010-11-01T14:24:00Z,27.6010,-82.7510,24.51,1111122 
COMPS,ioos:station:USF.COMPS:EGK:1,2010-11-01T14:30:00Z,27.6010,-82.7510,24.58,1111122 
COMPS,ioos:station:USF.COMPS:EGK:1,2010-11-01T14:36:00Z,27.6010,-82.7510,24.59,1111122 
COMPS,ioos:station:USF.COMPS:EGK:1,2010-11-01T14:42:00Z,27.6010,-82.7510,24.6,1111122 
COMPS,ioos:station:USF.COMPS:EGK:1,2010-11-01T14:48:00Z,27.6010,-82.7510,24.61,1111122 
COMPS,ioos:station:USF.COMPS:EGK:1,2010-11-01T14:54:00Z,27.6010,-82.7510,24.65,1111122 
COMPS,ioos:station:USF.COMPS:EGK:1,2010-11-01T15:00:00Z,27.6010,-82.7510,24.7,1111122 
COMPS,ioos:station:USF.COMPS:EGK:1,2010-11-01T15:06:00Z,27.6010,-82.7510,24.69,1111122 
COMPS,ioos:station:USF.COMPS:EGK:1,2010-11-01T15:12:00Z,27.6010,-82.7510,24.79,1111122 
COMPS,ioos:station:USF.COMPS:EGK:1,2010-11-01T15:18:00Z,27.6010,-82.7510,24.81,1111122 
COMPS,ioos:station:USF.COMPS:EGK:1,2010-11-01T15:24:00Z,27.6010,-82.7510,24.89,1111122 
COMPS,ioos:station:USF.COMPS:EGK:1,2010-11-01T15:30:00Z,27.6010,-82.7510,25.1,1111122 
COMPS,ioos:station:USF.COMPS:EGK:1,2010-11-01T15:36:00Z,27.6010,-82.7510,25.1,1111122 
COMPS,ioos:station:USF.COMPS:EGK:1,2010-11-01T15:42:00Z,27.6010,-82.7510,25.18,1111122 
COMPS,ioos:station:USF.COMPS:EGK:1,2010-11-01T15:48:00Z,27.6010,-82.7510,25.18,1111122 
COMPS,ioos:station:USF.COMPS:EGK:1,2010-11-01T15:54:00Z,27.6010,-82.7510,25.25,1111122 
COMPS,ioos:station:USF.COMPS:EGK:1,2010-11-01T16:00:00Z,27.6010,-82.7510,25.3,1111122 
COMPS,ioos:station:USF.COMPS:EGK:1,2010-11-01T16:06:00Z,27.6010,-82.7510,25.29,1111122 
COMPS,ioos:station:USF.COMPS:EGK:1,2010-11-01T16:12:00Z,27.6010,-82.7510,25.29,1111122 
COMPS,ioos:station:USF.COMPS:EGK:1,2010-11-01T16:18:00Z,27.6010,-82.7510,25.22,1111122 
COMPS,ioos:station:USF.COMPS:EGK:1,2010-11-01T16:24:00Z,27.6010,-82.7510,25.2,1111122 
COMPS,ioos:station:USF.COMPS:EGK:1,2010-11-01T16:30:00Z,27.6010,-82.7510,25.2,1111122 
COMPS,ioos:station:USF.COMPS:EGK:1,2010-11-01T16:36:00Z,27.6010,-82.7510,25.19,1111122 
COMPS,ioos:station:USF.COMPS:EGK:1,2010-11-01T16:42:00Z,27.6010,-82.7510,25.26,1111122 
COMPS,ioos:station:USF.COMPS:EGK:1,2010-11-01T16:48:00Z,27.6010,-82.7510,25.15,1111122 
COMPS,ioos:station:USF.COMPS:EGK:1,2010-11-01T16:54:00Z,27.6010,-82.7510,25.29,1111122 
COMPS,ioos:station:USF.COMPS:EGK:1,2010-11-01T17:00:00Z,27.6010,-82.7510,25.3,1111122 
COMPS,ioos:station:USF.COMPS:EGK:1,2010-11-01T17:06:00Z,27.6010,-82.7510,25.2,1111122 
COMPS,ioos:station:USF.COMPS:EGK:1,2010-11-01T17:12:00Z,27.6010,-82.7510,25.25,1111122 
COMPS,ioos:station:USF.COMPS:EGK:1,2010-11-01T17:18:00Z,27.6010,-82.7510,25.29,1111122 
COMPS,ioos:station:USF.COMPS:EGK:1,2010-11-01T17:24:00Z,27.6010,-82.7510,25.36,1111122 
COMPS,ioos:station:USF.COMPS:EGK:1,2010-11-01T17:30:00Z,27.6010,-82.7510,25.54,1111122 
COMPS,ioos:station:USF.COMPS:EGK:1,2010-11-01T17:36:00Z,27.6010,-82.7510,25.46,1111122 
COMPS,ioos:station:USF.COMPS:EGK:1,2010-11-01T17:42:00Z,27.6010,-82.7510,25.52,1111122 
COMPS,ioos:station:USF.COMPS:EGK:1,2010-11-01T17:48:00Z,27.6010,-82.7510,25.6,1111122 
COMPS,ioos:station:USF.COMPS:EGK:1,2010-11-01T17:54:00Z,27.6010,-82.7510,25.77,1111122 
COMPS,ioos:station:USF.COMPS:EGK:1,2010-11-01T18:00:00Z,27.6010,-82.7510,25.8,1111122 
COMPS,ioos:station:USF.COMPS:EGK:1,2010-11-01T18:06:00Z,27.6010,-82.7510,25.72,1111122 
COMPS,ioos:station:USF.COMPS:EGK:1,2010-11-01T18:12:00Z,27.6010,-82.7510,25.73,1111122 
COMPS,ioos:station:USF.COMPS:EGK:1,2010-11-01T18:18:00Z,27.6010,-82.7510,25.92,1111122 
COMPS,ioos:station:USF.COMPS:EGK:1,2010-11-01T18:24:00Z,27.6010,-82.7510,25.9,1111122 
COMPS,ioos:station:USF.COMPS:EGK:1,2010-11-01T18:30:00Z,27.6010,-82.7510,25.94,1111122 
COMPS,ioos:station:USF.COMPS:EGK:1,2010-11-01T18:36:00Z,27.6010,-82.7510,26.03,1111122 
COMPS,ioos:station:USF.COMPS:EGK:1,2010-11-01T18:42:00Z,27.6010,-82.7510,26.08,1111122 
COMPS,ioos:station:USF.COMPS:EGK:1,2010-11-01T18:48:00Z,27.6010,-82.7510,26.15,1111122 
COMPS,ioos:station:USF.COMPS:EGK:1,2010-11-01T18:54:00Z,27.6010,-82.7510,26.22,1111122 
COMPS,ioos:station:USF.COMPS:EGK:1,2010-11-01T19:00:00Z,27.6010,-82.7510,26.2,1111122 
COMPS,ioos:station:USF.COMPS:EGK:1,2010-11-01T19:06:00Z,27.6010,-82.7510,26.11,1111122 
COMPS,ioos:station:USF.COMPS:EGK:1,2010-11-01T19:12:00Z,27.6010,-82.7510,26.06,1111122 
COMPS,ioos:station:USF.COMPS:EGK:1,2010-11-01T19:18:00Z,27.6010,-82.7510,26.18,1111122 
COMPS,ioos:station:USF.COMPS:EGK:1,2010-11-01T19:24:00Z,27.6010,-82.7510,26.29,1111122 
COMPS,ioos:station:USF.COMPS:EGK:1,2010-11-01T19:30:00Z,27.6010,-82.7510,26.27,1111122 
COMPS,ioos:station:USF.COMPS:EGK:1,2010-11-01T19:36:00Z,27.6010,-82.7510,26.34,1111122 
COMPS,ioos:station:USF.COMPS:EGK:1,2010-11-01T19:42:00Z,27.6010,-82.7510,26.36,1111122 
COMPS,ioos:station:USF.COMPS:EGK:1,2010-11-01T19:48:00Z,27.6010,-82.7510,26.27,1111122 
COMPS,ioos:station:USF.COMPS:EGK:1,2010-11-01T19:54:00Z,27.6010,-82.7510,26.38,1111122 
COMPS,ioos:station:USF.COMPS:EGK:1,2010-11-01T20:00:00Z,27.6010,-82.7510,26.4,1111122 
COMPS,ioos:station:USF.COMPS:EGK:1,2010-11-01T20:06:00Z,27.6010,-82.7510,26.41,1111122 
COMPS,ioos:station:USF.COMPS:EGK:1,2010-11-01T20:12:00Z,27.6010,-82.7510,26.47,1111122 
COMPS,ioos:station:USF.COMPS:EGK:1,2010-11-01T20:18:00Z,27.6010,-82.7510,26.51,1111122 
COMPS,ioos:station:USF.COMPS:EGK:1,2010-11-01T20:24:00Z,27.6010,-82.7510,26.52,1111122 
COMPS,ioos:station:USF.COMPS:EGK:1,2010-11-01T20:30:00Z,27.6010,-82.7510,26.49,1111122 
COMPS,ioos:station:USF.COMPS:EGK:1,2010-11-01T20:36:00Z,27.6010,-82.7510,26.57,1111122 
COMPS,ioos:station:USF.COMPS:EGK:1,2010-11-01T20:42:00Z,27.6010,-82.7510,26.64,1111122 
COMPS,ioos:station:USF.COMPS:EGK:1,2010-11-01T20:48:00Z,27.6010,-82.7510,26.76,1111122 
COMPS,ioos:station:USF.COMPS:EGK:1,2010-11-01T20:54:00Z,27.6010,-82.7510,26.74,1111122 
COMPS,ioos:station:USF.COMPS:EGK:1,2010-11-01T21:00:00Z,27.6010,-82.7510,26.7,1111122 
COMPS,ioos:station:USF.COMPS:EGK:1,2010-11-01T21:06:00Z,27.6010,-82.7510,26.38,1111122 
COMPS,ioos:station:USF.COMPS:EGK:1,2010-11-01T21:12:00Z,27.6010,-82.7510,26.33,1111122 
COMPS,ioos:station:USF.COMPS:EGK:1,2010-11-01T21:18:00Z,27.6010,-82.7510,26.39,1111122 
COMPS,ioos:station:USF.COMPS:EGK:1,2010-11-01T21:24:00Z,27.6010,-82.7510,26.37,1111122 
COMPS,ioos:station:USF.COMPS:EGK:1,2010-11-01T21:30:00Z,27.6010,-82.7510,26.27,1111122 
COMPS,ioos:station:USF.COMPS:EGK:1,2010-11-01T21:36:00Z,27.6010,-82.7510,26.17,1111122 
COMPS,ioos:station:USF.COMPS:EGK:1,2010-11-01T21:42:00Z,27.6010,-82.7510,26.11,1111122 
COMPS,ioos:station:USF.COMPS:EGK:1,2010-11-01T21:48:00Z,27.6010,-82.7510,26.0,1111122 
COMPS,ioos:station:USF.COMPS:EGK:1,2010-11-01T21:54:00Z,27.6010,-82.7510,25.77,1111122 
COMPS,ioos:station:USF.COMPS:EGK:1,2010-11-01T22:00:00Z,27.6010,-82.7510,25.8,1111122 
COMPS,ioos:station:USF.COMPS:EGK:1,2010-11-01T22:06:00Z,27.6010,-82.7510,25.59,1111122 
COMPS,ioos:station:USF.COMPS:EGK:1,2010-11-01T22:12:00Z,27.6010,-82.7510,25.56,1111122 
COMPS,ioos:station:USF.COMPS:EGK:1,2010-11-01T22:18:00Z,27.6010,-82.7510,25.43,1111122 
COMPS,ioos:station:USF.COMPS:EGK:1,2010-11-01T22:24:00Z,27.6010,-82.7510,25.39,1111122 
COMPS,ioos:station:USF.COMPS:EGK:1,2010-11-01T22:30:00Z,27.6010,-82.7510,25.36,1111122 
COMPS,ioos:station:USF.COMPS:EGK:1,2010-11-01T22:36:00Z,27.6010,-82.7510,25.4,1111122 
COMPS,ioos:station:USF.COMPS:EGK:1,2010-11-01T22:42:00Z,27.6010,-82.7510,25.36,1111122 
COMPS,ioos:station:USF.COMPS:EGK:1,2010-11-01T22:48:00Z,27.6010,-82.7510,25.38,1111122 
COMPS,ioos:station:USF.COMPS:EGK:1,2010-11-01T22:54:00Z,27.6010,-82.7510,25.4,1111122 
COMPS,ioos:station:USF.COMPS:EGK:1,2010-11-01T23:00:00Z,27.6010,-82.7510,25.4,1111122 
COMPS,ioos:station:USF.COMPS:EGK:1,2010-11-01T23:06:00Z,27.6010,-82.7510,25.33,1111122 
COMPS,ioos:station:USF.COMPS:EGK:1,2010-11-01T23:12:00Z,27.6010,-82.7510,25.28,1111122 
COMPS,ioos:station:USF.COMPS:EGK:1,2010-11-01T23:18:00Z,27.6010,-82.7510,25.25,1111122 
COMPS,ioos:station:USF.COMPS:EGK:1,2010-11-01T23:24:00Z,27.6010,-82.7510,25.23,1111122 
COMPS,ioos:station:USF.COMPS:EGK:1,2010-11-01T23:30:00Z,27.6010,-82.7510,25.2,1111122 
COMPS,ioos:station:USF.COMPS:EGK:1,2010-11-01T23:36:00Z,27.6010,-82.7510,25.2,1111122 
COMPS,ioos:station:USF.COMPS:EGK:1,2010-11-01T23:42:00Z,27.6010,-82.7510,25.17,1111122 
COMPS,ioos:station:USF.COMPS:EGK:1,2010-11-01T23:48:00Z,27.6010,-82.7510,25.15,1111122 
COMPS,ioos:station:USF.COMPS:EGK:1,2010-11-01T23:54:00Z,27.6010,-82.7510,25.13,1111122 
COMPS,ioos:station:USF.COMPS:EGK:1,2010-11-02T00:00:00Z,27.6010,-82.7510,25.1,1111122 
COMPS,ioos:station:USF.COMPS:EGK:1,2010-11-02T00:06:00Z,27.6010,-82.7510,25.19,1111122 
COMPS,ioos:station:USF.COMPS:EGK:1,2010-11-02T00:12:00Z,27.6010,-82.7510,25.17,1111122 
COMPS,ioos:station:USF.COMPS:EGK:1,2010-11-02T00:18:00Z,27.6010,-82.7510,25.13,1111122 
COMPS,ioos:station:USF.COMPS:EGK:1,2010-11-02T00:24:00Z,27.6010,-82.7510,25.12,1111122 
COMPS,ioos:station:USF.COMPS:EGK:1,2010-11-02T00:30:00Z,27.6010,-82.7510,25.1,1111122 
COMPS,ioos:station:USF.COMPS:EGK:1,2010-11-02T00:36:00Z,27.6010,-82.7510,25.08,1111122 
COMPS,ioos:station:USF.COMPS:EGK:1,2010-11-02T00:42:00Z,27.6010,-82.7510,25.02,1111122 
COMPS,ioos:station:USF.COMPS:EGK:1,2010-11-02T00:48:00Z,27.6010,-82.7510,24.98,1111122 
COMPS,ioos:station:USF.COMPS:EGK:1,2010-11-02T00:54:00Z,27.6010,-82.7510,24.95,1111122 
COMPS,ioos:station:USF.COMPS:EGK:1,2010-11-02T01:00:00Z,27.6010,-82.7510,25.0,1111122 
COMPS,ioos:station:USF.COMPS:EGK:1,2010-11-02T01:06:00Z,27.6010,-82.7510,24.85,1111122 
COMPS,ioos:station:USF.COMPS:EGK:1,2010-11-02T01:12:00Z,27.6010,-82.7510,24.76,1111122 
COMPS,ioos:station:USF.COMPS:EGK:1,2010-11-02T01:18:00Z,27.6010,-82.7510,24.75,1111122 
COMPS,ioos:station:USF.COMPS:EGK:1,2010-11-02T01:24:00Z,27.6010,-82.7510,24.79,1111122 
COMPS,ioos:station:USF.COMPS:EGK:1,2010-11-02T01:30:00Z,27.6010,-82.7510,24.7,1111122 
COMPS,ioos:station:USF.COMPS:EGK:1,2010-11-02T01:36:00Z,27.6010,-82.7510,24.71,1111122 
COMPS,ioos:station:USF.COMPS:EGK:1,2010-11-02T01:42:00Z,27.6010,-82.7510,24.69,1111122 
COMPS,ioos:station:USF.COMPS:EGK:1,2010-11-02T01:48:00Z,27.6010,-82.7510,24.66,1111122 
COMPS,ioos:station:USF.COMPS:EGK:1,2010-11-02T01:54:00Z,27.6010,-82.7510,24.62,1111122 
COMPS,ioos:station:USF.COMPS:EGK:1,2010-11-02T02:00:00Z,27.6010,-82.7510,24.6,1111122 
COMPS,ioos:station:USF.COMPS:EGK:1,2010-11-02T02:06:00Z,27.6010,-82.7510,24.54,1111122 
COMPS,ioos:station:USF.COMPS:EGK:1,2010-11-02T02:12:00Z,27.6010,-82.7510,24.52,1111122 
COMPS,ioos:station:USF.COMPS:EGK:1,2010-11-02T02:18:00Z,27.6010,-82.7510,24.55,1111122 
COMPS,ioos:station:USF.COMPS:EGK:1,2010-11-02T02:24:00Z,27.6010,-82.7510,24.56,1111122 
COMPS,ioos:station:USF.COMPS:EGK:1,2010-11-02T02:30:00Z,27.6010,-82.7510,24.59,1111122 
COMPS,ioos:station:USF.COMPS:EGK:1,2010-11-02T02:36:00Z,27.6010,-82.7510,24.55,1111122 
COMPS,ioos:station:USF.COMPS:EGK:1,2010-11-02T02:42:00Z,27.6010,-82.7510,24.58,1111122 
COMPS,ioos:station:USF.COMPS:EGK:1,2010-11-02T02:48:00Z,27.6010,-82.7510,24.58,1111122 
COMPS,ioos:station:USF.COMPS:EGK:1,2010-11-02T02:54:00Z,27.6010,-82.7510,24.58,1111122 
COMPS,ioos:station:USF.COMPS:EGK:1,2010-11-02T03:00:00Z,27.6010,-82.7510,24.6,1111122 
COMPS,ioos:station:USF.COMPS:EGK:1,2010-11-02T03:06:00Z,27.6010,-82.7510,24.51,1111122 
COMPS,ioos:station:USF.COMPS:EGK:1,2010-11-02T03:12:00Z,27.6010,-82.7510,24.43,1111122 
COMPS,ioos:station:USF.COMPS:EGK:1,2010-11-02T03:18:00Z,27.6010,-82.7510,24.48,1111122 
COMPS,ioos:station:USF.COMPS:EGK:1,2010-11-02T03:24:00Z,27.6010,-82.7510,24.43,1111122 
COMPS,ioos:station:USF.COMPS:EGK:1,2010-11-02T03:30:00Z,27.6010,-82.7510,24.41,1111122 
COMPS,ioos:station:USF.COMPS:EGK:1,2010-11-02T03:36:00Z,27.6010,-82.7510,24.33,1111122 
COMPS,ioos:station:USF.COMPS:EGK:1,2010-11-02T03:42:00Z,27.6010,-82.7510,24.29,1111122 
COMPS,ioos:station:USF.COMPS:EGK:1,2010-11-02T03:48:00Z,27.6010,-82.7510,24.3,1111122 
COMPS,ioos:station:USF.COMPS:EGK:1,2010-11-02T03:54:00Z,27.6010,-82.7510,24.31,1111122 
COMPS,ioos:station:USF.COMPS:EGK:1,2010-11-02T04:00:00Z,27.6010,-82.7510,24.26,1111122 
COMPS,ioos:station:USF.COMPS:EGK:1,2010-11-02T04:06:00Z,27.6010,-82.7510,24.27,1111122 
COMPS,ioos:station:USF.COMPS:EGK:1,2010-11-02T04:12:00Z,27.6010,-82.7510,24.24,1111122 
COMPS,ioos:station:USF.COMPS:EGK:1,2010-11-02T04:18:00Z,27.6010,-82.7510,24.22,1111122 
COMPS,ioos:station:USF.COMPS:EGK:1,2010-11-02T04:24:00Z,27.6010,-82.7510,24.19,1111122 
COMPS,ioos:station:USF.COMPS:EGK:1,2010-11-02T04:30:00Z,27.6010,-82.7510,24.22,1111122 
COMPS,ioos:station:USF.COMPS:EGK:1,2010-11-02T04:36:00Z,27.6010,-82.7510,24.19,1111122 
COMPS,ioos:station:USF.COMPS:EGK:1,2010-11-02T04:42:00Z,27.6010,-82.7510,24.15,1111122 
COMPS,ioos:station:USF.COMPS:EGK:1,2010-11-02T04:48:00Z,27.6010,-82.7510,24.18,1111122 
COMPS,ioos:station:USF.COMPS:EGK:1,2010-11-02T04:54:00Z,27.6010,-82.7510,24.28,1111122 
COMPS,ioos:station:USF.COMPS:EGK:1,2010-11-02T05:00:00Z,27.6010,-82.7510,24.3,1111122 
COMPS,ioos:station:USF.COMPS:EGK:1,2010-11-02T12:00:00Z,27.6010,-82.7510,23.47,1111122 
COMPS,ioos:station:USF.COMPS:EGK:1,2010-11-02T12:06:00Z,27.6010,-82.7510,23.59,1111122 
COMPS,ioos:station:USF.COMPS:EGK:1,2010-11-02T12:12:00Z,27.6010,-82.7510,23.5,1111122 
COMPS,ioos:station:USF.COMPS:EGK:1,2010-11-02T12:18:00Z,27.6010,-82.7510,23.51,1111122 
COMPS,ioos:station:USF.COMPS:EGK:1,2010-11-02T12:24:00Z,27.6010,-82.7510,23.56,1111122 
COMPS,ioos:station:USF.COMPS:EGK:1,2010-11-02T12:30:00Z,27.6010,-82.7510,23.58,1111122 
COMPS,ioos:station:USF.COMPS:EGK:1,2010-11-02T12:36:00Z,27.6010,-82.7510,23.56,1111122 
COMPS,ioos:station:USF.COMPS:EGK:1,2010-11-02T12:42:00Z,27.6010,-82.7510,23.4,1111122 
COMPS,ioos:station:USF.COMPS:EGK:1,2010-11-02T12:48:00Z,27.6010,-82.7510,23.41,1111122 
COMPS,ioos:station:USF.COMPS:EGK:1,2010-11-02T12:54:00Z,27.6010,-82.7510,23.58,1111122 
COMPS,ioos:station:USF.COMPS:EGK:1,2010-11-02T13:00:00Z,27.6010,-82.7510,23.6,1111122 
COMPS,ioos:station:USF.COMPS:EGK:1,2010-11-02T13:06:00Z,27.6010,-82.7510,23.61,1111122 
COMPS,ioos:station:USF.COMPS:EGK:1,2010-11-02T13:12:00Z,27.6010,-82.7510,23.68,1111122 
COMPS,ioos:station:USF.COMPS:EGK:1,2010-11-02T13:18:00Z,27.6010,-82.7510,23.62,1111122 
COMPS,ioos:station:USF.COMPS:EGK:1,2010-11-02T13:24:00Z,27.6010,-82.7510,23.55,1111122 
COMPS,ioos:station:USF.COMPS:EGK:1,2010-11-02T13:30:00Z,27.6010,-82.7510,23.48,1111122 
COMPS,ioos:station:USF.COMPS:EGK:1,2010-11-02T13:36:00Z,27.6010,-82.7510,23.73,1111122 
COMPS,ioos:station:USF.COMPS:EGK:1,2010-11-02T13:42:00Z,27.6010,-82.7510,23.85,1111122 
COMPS,ioos:station:USF.COMPS:EGK:1,2010-11-02T13:48:00Z,27.6010,-82.7510,24.06,1111122 
COMPS,ioos:station:USF.COMPS:EGK:1,2010-11-02T13:54:00Z,27.6010,-82.7510,24.07,1111122 
COMPS,ioos:station:USF.COMPS:EGK:1,2010-11-02T14:00:00Z,27.6010,-82.7510,24.1,1111122 
COMPS,ioos:station:USF.COMPS:EGK:1,2010-11-02T14:06:00Z,27.6010,-82.7510,24.07,1111122 
COMPS,ioos:station:USF.COMPS:EGK:1,2010-11-02T14:12:00Z,27.6010,-82.7510,24.14,1111122 
COMPS,ioos:station:USF.COMPS:EGK:1,2010-11-02T14:18:00Z,27.6010,-82.7510,24.19,1111122 
COMPS,ioos:station:USF.COMPS:EGK:1,2010-11-02T14:24:00Z,27.6010,-82.7510,24.18,1111122 
COMPS,ioos:station:USF.COMPS:EGK:1,2010-11-02T14:30:00Z,27.6010,-82.7510,24.22,1111122 
COMPS,ioos:station:USF.COMPS:EGK:1,2010-11-02T14:36:00Z,27.6010,-82.7510,24.23,1111122 
COMPS,ioos:station:USF.COMPS:EGK:1,2010-11-02T14:42:00Z,27.6010,-82.7510,24.33,1111122 
COMPS,ioos:station:USF.COMPS:EGK:1,2010-11-02T14:48:00Z,27.6010,-82.7510,24.37,1111122 
COMPS,ioos:station:USF.COMPS:EGK:1,2010-11-02T14:54:00Z,27.6010,-82.7510,24.45,1111122 
COMPS,ioos:station:USF.COMPS:EGK:1,2010-11-02T15:00:00Z,27.6010,-82.7510,24.5,1111122 
COMPS,ioos:station:USF.COMPS:EGK:1,2010-11-02T15:06:00Z,27.6010,-82.7510,24.48,1111122 
COMPS,ioos:station:USF.COMPS:EGK:1,2010-11-02T15:12:00Z,27.6010,-82.7510,24.49,1111122 
COMPS,ioos:station:USF.COMPS:EGK:1,2010-11-02T15:18:00Z,27.6010,-82.7510,24.51,1111122 
COMPS,ioos:station:USF.COMPS:EGK:1,2010-11-02T15:24:00Z,27.6010,-82.7510,24.52,1111122 
COMPS,ioos:station:USF.COMPS:EGK:1,2010-11-02T15:30:00Z,27.6010,-82.7510,24.55,1111122 
COMPS,ioos:station:USF.COMPS:EGK:1,2010-11-02T15:36:00Z,27.6010,-82.7510,24.64,1111122 
COMPS,ioos:station:USF.COMPS:EGK:1,2010-11-02T15:42:00Z,27.6010,-82.7510,24.7,1111122 
COMPS,ioos:station:USF.COMPS:EGK:1,2010-11-02T15:48:00Z,27.6010,-82.7510,24.73,1111122 
COMPS,ioos:station:USF.COMPS:EGK:1,2010-11-02T15:54:00Z,27.6010,-82.7510,24.87,1111122 